Location: El Calderillo del Agua
(28.4386°N, 16.2824°W)
Time: 13:18:45
(UTC+00:00)

Daily predictions for brighter satellites

Satellite Brightness Start Highest point End
(mag) Time Altitude Azimuth Time Altitude Azimuth Time Altitude Azimuth
Cosmos 1023 Rocket 4.4 18:28:24 10° S 18:33:27 79° ESE 18:38:33 10° NNE
USA 267 4.4 18:28:44 10° E 18:33:29 22° NE 18:38:15 10° NNW
STARLINK-75 4.4 18:32:32 10° SSW 18:36:12 35° SE 18:39:53 10° ENE
Cosmos 1092 Rocket 4.3 18:30:41 10° S 18:36:59 74° W 18:43:15 10° N
Cosmos 407 Rocket 4.1 18:33:59 10° SSW 18:39:04 60° WNW 18:44:14 10° N
Cosmos 292 Rocket 3.7 18:35:02 10° NNW 18:39:53 76° ENE 18:44:41 10° SSE
STARLINK-32 4.5 18:37:15 10° S 18:40:52 33° SE 18:44:29 10° ENE
CZ-3C R/B 3.6 18:38:09 10° SSW 18:41:08 26° SSE 18:50:21 10° E
Cosmos 1908 Rocket 3.5 18:37:22 10° N 18:41:45 87° E 18:46:04 10° S
Gbstr 26 Del rocket 4.3 18:34:28 10° SW 18:42:13 86° SE 18:48:47 10° NE
STARLINK-40 4.4 18:38:52 10° SSW 18:42:31 34° SE 18:46:11 10° ENE
STARLINK-26 3.4 18:40:35 10° SSW 18:44:02 58° SE 18:47:30 10° NE
STARLINK-44 4.3 18:40:29 10° SSW 18:44:10 36° SE 18:47:47 11° ENE
YAOGAN 1 4.2 18:42:47 10° E 18:44:49 13° ENE 18:46:50 10° NE
CZ-4 R/B 2.9 18:42:33 10° ESE 18:44:50 15° ENE 18:47:06 10° NE
STARLINK-37 4.2 18:42:09 10° SSW 18:45:54 40° SE 18:49:31 11° ENE
Okean-O 3.0 18:42:12 10° SE 18:46:21 41° ENE 18:50:32 10° N
STARLINK-36 4.2 18:43:42 10° SSW 18:47:27 39° SE 18:50:57 12° ENE
H-2A R/B 2.6 18:44:43 10° S 18:48:24 88° WSW 18:52:05 10° NNW
STARLINK-41 4.2 18:45:18 10° SSW 18:49:03 40° SE 18:52:28 12° ENE
COSMO-SKYMED 1 2.7 18:46:00 10° NNE 18:50:14 52° E 18:54:27 10° S
STARLINK-64 4.1 18:46:56 10° SSW 18:50:43 42° SE 18:54:05 13° ENE
Meteor 1-19 Rocket 4.3 18:46:09 10° S 18:51:32 56° E 18:56:51 10° NNE
GPS 2-05 Rocket1 3.3 18:49:33 10° W 18:52:05 34° NNW 18:54:08 14° NE
STARLINK-35 4.0 18:48:33 10° SSW 18:52:23 45° SE 18:55:43 13° ENE
STARLINK-51 3.9 18:50:12 10° SSW 18:54:04 47° SE 18:57:20 14° NE
STARLINK-30 3.9 18:51:49 10° SSW 18:55:42 50° SE 18:58:55 14° NE
Cosmos 1441 Rocket 3.1 18:52:30 10° N 18:56:15 86° E 18:59:58 10° S
NOAA 12 4.1 18:51:19 10° SSE 18:56:33 65° ENE 19:01:46 10° N
STARLINK-33 3.8 18:53:26 10° SSW 18:57:20 52° SE 19:00:30 15° NE
STARLINK-50 3.7 18:55:05 10° SSW 18:59:00 55° SE 19:02:06 15° NE
STARLINK 3.9 18:56:33 10° SSW 19:00:26 49° SE 19:03:20 16° ENE
Okean 3 3.7 18:57:00 10° SSE 19:01:00 46° E 19:05:00 10° NNE
STARLINK-56 3.6 18:58:21 10° SSW 19:02:17 60° SE 19:05:17 17° NE
Starlink (trailer) 3.6 18:59:58 10° SSW 19:03:56 63° SE 19:06:52 17° NE
SWIFT 4.3 19:00:44 10° WSW 19:04:14 24° S 19:07:42 10° SE
ISS -0.8 19:01:47 10° WNW 19:04:21 20° SW 19:06:54 10° S
Genesis I 3.0 19:00:32 10° NNW 19:04:22 81° ENE 19:08:08 10° SSE
Cosmos 921 Rocket 2.9 19:01:10 10° N 19:05:31 81° ENE 19:09:55 10° SSE
STARLINK-38 3.5 19:01:36 10° SSW 19:05:35 66° SE 19:08:27 18° NE
STARLINK-65 3.5 19:03:15 10° SSW 19:07:13 69° SE 19:10:02 19° NE
Cosmos 1515 3.7 19:04:06 10° S 19:07:47 56° E 19:11:30 10° NNE
Cosmos 1975 3.2 19:05:03 10° N 19:08:50 41° E 19:12:38 10° SSE
Cosmos 2297 3.6 19:04:20 10° NNW 19:10:02 79° ENE 19:15:39 10° SSE
YAOGAN 6 2.7 19:07:30 10° SSE 19:10:53 46° ENE 19:14:19 10° N
STARLINK-69 3.5 19:08:13 10° SW 19:12:13 82° SE 19:14:53 20° NE
Lacrosse 5 2.5 19:08:31 10° SW 19:13:30 54° NW 19:18:13 11° NNE
STARLINK-66 3.4 19:09:50 10° SW 19:13:50 83° SE 19:16:25 21° NE
Cosmos 2266 Rocket 4.3 19:09:56 10° SSE 19:15:59 46° E 19:22:00 10° NNE
CZ-3B R/B 1.9 19:12:16 10° SW 19:16:01 48° SSE 19:20:09 19° E
STARLINK-70 3.5 19:14:47 10° SW 19:18:48 85° NW 19:21:11 23° NE
STARLINK-68 3.6 19:16:33 10° SW 19:20:33 77° NW 19:22:56 23° NE
OAO 3 Rocket 3.2 19:16:34 10° WNW 19:21:11 58° NNE 19:23:41 26° E
S3M 4.1 19:15:59 10° N 19:21:54 48° E 19:27:44 10° SSE
STARLINK-58 3.6 19:18:07 10° SW 19:22:08 77° NW 19:24:25 25° NE
STARLINK-62 3.7 19:19:51 10° SW 19:23:51 71° NW 19:26:06 25° NNE
Cosmos 2151 Rocket 4.1 19:21:23 10° NNE 19:25:23 34° E 19:29:21 10° SE
STARLINK-63 3.7 19:21:26 10° SW 19:25:25 71° NW 19:27:35 26° NNE
Sakura Rocket 3.7 19:22:58 10° W 19:28:00 88° S 19:32:21 23° E
STARLINK-72 3.7 19:24:39 10° SW 19:28:39 69° NW 19:30:37 28° NNE
CZ-4C R/B 2.2 19:25:33 10° SW 19:30:12 63° WNW 19:34:37 15° NNE
STARLINK-59 3.9 19:28:04 10° SW 19:32:02 59° NW 19:33:56 28° NNE
Cosmos 1461 2.6 19:28:11 10° SSW 19:32:06 86° WNW 19:33:59 29° NNE
Cosmos 1867 3.6 19:26:47 10° NNW 19:32:07 54° ENE 19:37:23 10° SE
Cosmos 1553 Rocket 4.0 19:26:10 10° N 19:32:36 84° E 19:39:00 10° S
Cosmos 1943 3.2 19:28:03 10° SSW 19:33:43 88° WNW 19:38:34 14° NNE
STARLINK-55 4.0 19:31:25 10° SW 19:35:21 55° NW 19:37:06 29° NNE
Meteor 2-9 Rocket 4.1 19:30:28 10° N 19:36:17 72° E 19:41:55 10° SSE
STARLINK-28 4.1 19:33:08 10° SW 19:37:02 52° NW 19:38:45 29° NNE
Meteor 1-13 Rocket 4.1 19:32:15 10° S 19:37:51 69° E 19:42:54 13° NNE
Shenzhou-11 Module 2.1 19:37:06 10° WNW 19:39:29 60° W 19:39:29 60° W
Cosmos 489 Rocket 4.4 19:33:35 10° NNW 19:39:58 76° ENE 19:46:17 10° SSE
STARLINK-53 4.3 19:36:25 10° WSW 19:40:18 48° NW 19:41:52 30° N
STARLINK-54 4.4 19:38:07 10° WSW 19:41:59 45° NW 19:43:30 30° N
NOSS 2-1 (E) 3.7 19:39:41 10° S 19:42:39 39° SE 19:42:39 39° SE
OAO 2 Rocket 3.2 19:43:02 10° WNW 19:48:03 90° NNE 19:49:42 43° ESE
STARLINK-81 4.4 19:44:34 10° WSW 19:48:24 43° NW 19:49:33 34° N
H-II Stage 2 3.4 19:19:03 10° W 19:48:48 89° SSW 19:51:12 38° E
ADEOS Rocket 3.4 19:49:10 35° ESE 19:49:10 35° ESE 19:54:04 10° SSE
DMSP B5D1-3 4.5 19:46:28 14° N 19:50:50 83° WNW 19:55:56 10° SSW
Okean 2 Rocket 3.5 19:47:33 10° NNW 19:52:00 64° W 19:56:27 10° S
Meteor 1-23 Rocket 4.4 19:47:46 10° SSE 19:53:14 47° E 19:53:44 46° ENE
IRIDIUM 104 4.5 19:49:30 10° S 19:54:41 73° W 19:59:54 10° N
Cosmos 2369 Rocket 2.3 19:49:52 10° N 19:55:20 49° ENE 19:55:21 49° ENE
Aureole 3 Rocket 2.8 19:55:28 52° NW 19:56:01 62° W 19:59:42 10° S
Cosmos 405 3.3 19:55:38 10° SSW 19:58:55 63° WSW 19:58:55 63° WSW
Cosmos 2084 Rocket 4.3 19:55:56 10° SW 20:00:08 47° WNW 20:01:28 35° NNW
ATLAS 3B CENTAUR R/B 4.1 19:58:05 10° SSW 20:04:37 43° SE 20:09:04 33° ESE
Cosmos 883 Rocket 4.3 20:03:26 10° N 20:09:44 73° E 20:15:55 10° S
USA 81 4.5 20:08:38 10° SSW 20:13:50 61° W 20:17:29 20° N
USA 267 3.1 20:12:06 28° SE 20:15:51 90° NNE 20:22:25 10° NW
SEDSat Delta rocket 3.9 20:09:34 10° WSW 20:16:18 78° SSE 20:17:13 67° ESE
Cosmos 1943 Rocket 2.1 20:11:39 10° NNW 20:17:15 81° WSW 20:22:47 10° SSE
CZ-4 R/B 3.5 20:16:23 10° SSW 20:19:36 25° W 20:22:48 10° NW
Cosmos 405 Rocket 4.4 20:18:55 23° NW 20:20:25 31° W 20:23:45 10° SSW
CSL-04 Rocket 4.4 20:15:20 10° S 20:20:26 51° W 20:25:34 10° NNW
YAOGAN 1 4.0 20:16:31 10° SSW 20:20:31 37° W 20:24:31 10° NNW
Meteor 2-8 Rocket 4.4 20:17:07 10° N 20:23:55 69° SSE 20:29:15 10° S
Delta 128 4.2 20:18:26 10° W 20:22:24 56° WSW 20:22:24 56° WSW
Nadezhda 2 Rocket 4.3 20:20:01 10° S 20:26:22 83° E 20:26:25 83° E
Cosmos 1066 Rocket 4.5 20:21:32 10° S 20:26:18 61° S 20:26:18 61° S
NOSS 3-1 (C) 4.4 20:24:12 10° NNW 20:30:33 50° NNE 20:30:33 50° NNE
CZ-3B R/B 3.3 21:04:41 10° W 21:07:29 36° W 21:07:29 36° W
